Challis, ID

11:10 AM MST on December 17, 2017 (GMT -0700)
Challis

Weather History for KLLJ - July, 2013

Change the Weather History Date:

Tuesday, July 16, 2013

  Actual Average Record
Temperature  
Mean Temperature 74 °F 69 °F  
Max Temperature 92 °F 87 °F 96 °F (2010)
Min Temperature 56 °F 52 °F 41 °F (1983)
Degree Days  
Heating Degree Days 0 0  
Month to date heating degree days 0 18  
Since 1 June heating degree days 121 183  
Since 1 July heating degree days 0 18  
Cooling Degree Days 9 5  
Month to date cooling degree days 116 55  
Year to date cooling degree days 181 79  
Since 1 June cooling degree days 179 77  
Growing Degree Days 23 (Base 50)    
Moisture  
Dew Point 45 °F    
Average Humidity 34    
Maximum Humidity 51    
Minimum Humidity 16    
Precipitation  
Precipitation 0.12 in 0.02 in 0.43 in (1989)
Month to date precipitation 0.40 0.44  
Year to date precipitation 2.14 6.21  
Sea Level Pressure  
Sea Level Pressure 29.94 in    
Wind  
Wind Speed 5 mph (NNW)    
Max Wind Speed 31 mph    
Max Gust Speed 36 mph    
Visibility 10 miles    
Events Rain , Thunderstorm    
T = Trace of Precipitation, MM = Missing Value Source: NWS Daily Summary

Daily Weather History Graph

Daily Weather History Graph

Search for Another Location

Airport or City:

Trip Planner

Search our weather history database for the weather conditions in past years. The results will help you decide how hot, cold, wet, or windy it might be!

Date:

Astronomy

Jul. 16, 2013 Rise Set
Actual Time 6:07 AM MDT 9:18 PM MDT
Civil Twilight 5:32 AM MDT 9:53 PM MDT
Nautical Twilight 4:46 AM MDT 10:38 PM MDT
Astronomical Twilight 3:50 AM MDT 11:33 PM MDT
Moon 2:58 PM MDT (7/16) 12:46 AM MDT (7/16)
Length of Visible Light 16h 21m
Length of Day
15h 10m
First Quarter, 57% of the Moon is Illuminated
Jul 16
First Quarter
Jul 22
Full
Jul 29
Last Quarter
Aug 6
New
Aug 14
First Quarter

Hourly Weather History & Observations

Time (MDT) Temp. Dew Point Humidity Pressure Visibility Wind Dir Wind Speed Gust Speed Precip Events Conditions
12:55 AM 66.9 °F 33.1 °F 28% 29.82 in 10.0 mi Calm Calm - N/A   Clear
1:55 AM 66.0 °F 30.0 °F 26% 29.81 in 10.0 mi Calm Calm - N/A   Clear
2:55 AM 66.9 °F 30.0 °F 25% 29.80 in 10.0 mi Calm Calm - N/A   Clear
3:55 AM 62.1 °F 34.0 °F 35% 29.81 in 10.0 mi North 3.5 mph - N/A   Clear
4:55 AM 62.1 °F 32.0 °F 32% 29.82 in 10.0 mi Calm Calm - N/A   Clear
5:55 AM 57.0 °F 39.0 °F 51% 29.85 in 10.0 mi Calm Calm - N/A   Clear
6:55 AM 59.0 °F 34.0 °F 39% 29.86 in 10.0 mi Calm Calm - N/A   Clear
7:55 AM 57.9 °F 39.0 °F 49% 29.89 in 10.0 mi Calm Calm - N/A   Clear
8:55 AM 66.0 °F 35.1 °F 32% 29.89 in 10.0 mi Calm Calm - N/A   Clear
9:55 AM 73.0 °F 36.0 °F 26% 29.88 in 10.0 mi Calm Calm - N/A   Clear
10:55 AM 75.9 °F 37.0 °F 24% 29.87 in 10.0 mi Calm Calm - N/A   Partly Cloudy
11:55 AM 79.0 °F 35.1 °F 20% 29.85 in 10.0 mi NNW 4.6 mph - N/A   Partly Cloudy
12:55 PM 84.0 °F 41.0 °F 22% 29.83 in 10.0 mi NNE 4.6 mph - N/A   Clear
1:55 PM 89.1 °F 37.9 °F 16% 29.79 in 10.0 mi NE 3.5 mph - N/A   Clear
2:19 PM 89.6 °F 39.2 °F 17% 30.01 in 10.0 mi Calm Calm - N/A Thunderstorm Scattered Clouds
2:46 PM 86.0 °F 41.0 °F 20% 30.00 in 10.0 mi Calm Calm - N/A Thunderstorm Mostly Cloudy
2:55 PM 84.9 °F 41.0 °F 21% 29.78 in 10.0 mi Variable 3.5 mph - N/A Thunderstorm Mostly Cloudy
3:55 PM 73.0 °F 53.1 °F 49% 29.87 in 10.0 mi NW 16.1 mph - 0.01 in Rain Light Rain
4:03 PM 71.6 °F 55.4 °F 57% 30.05 in 8.0 mi North 8.1 mph - 0.00 in Rain , Thunderstorm Light Rain
4:18 PM 73.4 °F 55.4 °F 53% 30.06 in 10.0 mi Calm Calm - 0.01 in   Overcast
4:55 PM 75.9 °F 57.0 °F 52% 29.85 in 10.0 mi NNW 15.0 mph - 0.01 in   Scattered Clouds
5:55 PM 75.9 °F 52.0 °F 43% 29.87 in 10.0 mi NNE 15.0 mph 24.2 mph N/A   Clear
6:55 PM 73.9 °F 52.0 °F 46% 29.89 in 10.0 mi North 8.1 mph - N/A   Overcast
7:17 PM 73.4 °F 53.6 °F 50% 30.08 in 10.0 mi NW 12.7 mph 17.3 mph N/A Thunderstorm Overcast
7:41 PM 71.6 °F 53.6 °F 53% 30.09 in 10.0 mi North 12.7 mph - 0.00 in Rain , Thunderstorm Light Rain
7:55 PM 70.0 °F 55.9 °F 61% 29.94 in 10.0 mi North 6.9 mph - 0.00 in Rain Light Rain
8:41 PM 71.6 °F 51.8 °F 50% 30.11 in 10.0 mi NNW 6.9 mph - 0.01 in Thunderstorm Overcast
8:55 PM 70.0 °F 54.0 °F 57% 29.94 in 10.0 mi North 6.9 mph - 0.01 in Rain , Thunderstorm Light Thunderstorms and Rain
9:26 PM 66.2 °F 55.4 °F 68% 30.13 in 10.0 mi NNW 8.1 mph - 0.00 in   Mostly Cloudy
9:53 PM 66.2 °F 53.6 °F 64% 30.18 in 10.0 mi West 8.1 mph - 0.00 in Rain , Thunderstorm Light Rain
9:55 PM 66.9 °F 54.0 °F 63% 30.00 in 10.0 mi West 9.2 mph - 0.00 in Rain , Thunderstorm Light Rain
10:27 PM 64.4 °F 57.2 °F 77% 30.21 in 6.0 mi SE 4.6 mph - 0.02 in Rain Light Rain
10:55 PM 63.0 °F 57.0 °F 81% 29.99 in 10.0 mi ENE 3.5 mph - 0.09 in Rain Light Rain
11:55 PM 63.0 °F 55.9 °F 78% 30.00 in 10.0 mi NNW 8.1 mph - 0.00 in   Clear